Private Wetterstation Wechselburg
Wetterdaten: Freitag, 25.11.2011
Datum Zeit Temp. +2m Bodentemp. Temp.+5cm Temp. Wind Windchill X Diff Temp. Feuchte +2m Feuchte +5cm Sonnenschein Luftdruck Regen Wind Richtung Richtung Sonnenschein UV Taupunkt Windchill Windben
25.11.2011 00:00 -0,5 C 10,1 C -0,1 C -0,9 C -1,8 C 0,0 C 89 % 90 % 0 % 1031,8 hPa 0,0 l/m 0,0 km/h (0 Bft) NO 45 0 min 0,0 UV-I -2,1 C -1,8 C 0,0 km/h (0 Bft)
25.11.2011 00:13 -0,8 C 10,1 C -0,3 C -1,1 C -1,8 C 0,0 C 89 % 90 % 0 % 1031,8 hPa 0,0 l/m 0,0 km/h (0 Bft) NO 45 0 min 0,0 UV-I -2,4 C -1,8 C 0,0 km/h (0 Bft)
25.11.2011 00:14 -0,8 C 10,1 C -0,3 C -1,1 C -1,8 C 0,0 C 89 % 90 % 0 % 1031,8 hPa 0,0 l/m 0,0 km/h (0 Bft) NO 45 0 min 0,0 UV-I -2,4 C -1,8 C 0,0 km/h (0 Bft)
25.11.2011 00:25 -0,9 C 10,1 C -0,5 C -1,3 C -2,1 C 0,0 C 89 % 90 % 0 % 1031,5 hPa 0,0 l/m 0,0 km/h (0 Bft) NO 45 0 min 0,0 UV-I -2,5 C -2,1 C 0,0 km/h (0 Bft)
25.11.2011 00:30 -1,1 C 10,1 C -0,5 C -1,5 C -2,2 C 0,0 C 89 % 90 % 0 % 1031,5 hPa 0,0 l/m 0,0 km/h (0 Bft) NO 45 0 min 0,0 UV-I -2,7 C -2,2 C 0,0 km/h (0 Bft)
25.11.2011 00:35 -1,2 C 10,1 C -0,5 C -1,5 C -2,1 C 0,0 C 89 % 90 % 0 % 1031,5 hPa 0,0 l/m 0,0 km/h (0 Bft) NO 45 0 min 0,0 UV-I -2,8 C -2,1 C 0,0 km/h (0 Bft)
25.11.2011 00:40 -1,1 C 10,1 C -0,5 C -1,4 C -2,0 C 0,0 C 89 % 90 % 0 % 1030,7 hPa 0,0 l/m 0,0 km/h (0 Bft) NO 45 0 min 0,0 UV-I -2,7 C -2,0 C 0,0 km/h (0 Bft)
25.11.2011 00:45 -1,1 C 10,0 C -0,5 C -1,4 C -2,1 C 0,0 C 90 % 90 % 0 % 1030,7 hPa 0,0 l/m 0,0 km/h (0 Bft) NO 45 0 min 0,0 UV-I -2,5 C -2,1 C 0,0 km/h (0 Bft)
25.11.2011 00:50 -1,2 C 10,0 C -0,5 C -1,5 C -2,1 C 0,0 C 90 % 90 % 0 % 1030,7 hPa 0,0 l/m 0,0 km/h (0 Bft) NO 45 0 min 0,0 UV-I -2,6 C -2,1 C 0,0 km/h (0 Bft)
25.11.2011 00:55 -1,3 C 10,0 C -0,7 C -1,6 C -2,2 C 0,0 C 90 % 90 % 0 % 1030,7 hPa 0,0 l/m 0,0 km/h (0 Bft) NO 45 0 min 0,0 UV-I -2,7 C -2,2 C 0,0 km/h (0 Bft)
25.11.2011 01:00 -1,3 C 10,0 C -0,7 C -1,6 C -2,2 C 0,0 C 90 % 90 % 0 % 1030,7 hPa 0,0 l/m 0,0 km/h (0 Bft) S-SW 202 0 min 0,0 UV-I -2,7 C -2,2 C 0,0 km/h (0 Bft)
25.11.2011 01:04 -1,4 C 10,1 C -0,7 C -1,7 C -2,2 C 0,0 C 90 % 90 % 0 % 1030,7 hPa 0,0 l/m 0,0 km/h (0 Bft) S-SW 202 0 min 0,0 UV-I -2,8 C -2,2 C 0,0 km/h (0 Bft)
25.11.2011 01:09 -1,3 C 10,1 C -0,7 C -1,6 C -2,2 C 0,0 C 90 % 90 % 0 % 1030,7 hPa 0,0 l/m 0,0 km/h (0 Bft) S-SW 202 0 min 0,0 UV-I -2,7 C -2,2 C 0,0 km/h (0 Bft)
25.11.2011 01:14 -1,3 C 10,1 C -0,7 C -1,6 C -2,1 C 0,0 C 90 % 91 % 0 % 1030,7 hPa 0,0 l/m 0,0 km/h (0 Bft) SW 225 0 min 0,0 UV-I -2,7 C -2,1 C 0,0 km/h (0 Bft)
25.11.2011 01:19 -1,3 C 10,1 C -0,7 C -1,6 C -2,1 C 0,0 C 90 % 91 % 0 % 1030,7 hPa 0,0 l/m 0,0 km/h (0 Bft) SW 225 0 min 0,0 UV-I -2,7 C -2,1 C 0,0 km/h (0 Bft)
25.11.2011 01:25 -1,1 C 10,1 C -0,5 C -1,4 C -2,0 C 0,0 C 90 % 91 % 0 % 1030,7 hPa 0,0 l/m 0,0 km/h (0 Bft) S-SO 157 0 min 0,0 UV-I -2,5 C -2,0 C 0,0 km/h (0 Bft)
25.11.2011 01:30 -1,1 C 10,1 C -0,6 C -1,4 C -1,9 C 0,0 C 90 % 91 % 0 % 1030,7 hPa 0,0 l/m 0,0 km/h (0 Bft) S 180 0 min 0,0 UV-I -2,5 C -1,9 C 0,0 km/h (0 Bft)
25.11.2011 01:35 -1,2 C 10,0 C -0,7 C -1,5 C -2,0 C 0,0 C 90 % 91 % 0 % 1030,7 hPa 0,0 l/m 0,0 km/h (0 Bft) SW 225 0 min 0,0 UV-I -2,6 C -2,0 C 0,0 km/h (0 Bft)
25.11.2011 01:40 -1,2 C 10,1 C -0,7 C -1,5 C -2,1 C 0,0 C 90 % 91 % 0 % 1030,1 hPa 0,0 l/m 0,0 km/h (0 Bft) S 180 0 min 0,0 UV-I -2,6 C -2,1 C 0,0 km/h (0 Bft)
25.11.2011 01:45 -1,3 C 10,1 C -0,9 C -1,6 C -2,1 C 0,0 C 90 % 91 % 0 % 1030,1 hPa 0,0 l/m 0,0 km/h (0 Bft) S-SO 157 0 min 0,0 UV-I -2,7 C -2,1 C 0,0 km/h (0 Bft)
25.11.2011 01:50 -1,3 C 10,0 C -0,9 C -1,6 C -2,1 C 0,0 C 90 % 91 % 0 % 1030,1 hPa 0,0 l/m 0,0 km/h (0 Bft) S 180 0 min 0,0 UV-I -2,7 C -2,1 C 0,0 km/h (0 Bft)
25.11.2011 01:55 -1,3 C 10,0 C -0,9 C -1,6 C -2,2 C 0,0 C 90 % 91 % 0 % 1030,1 hPa 0,0 l/m 0,0 km/h (0 Bft) SW 225 0 min 0,0 UV-I -2,7 C -2,2 C 0,0 km/h (0 Bft)
25.11.2011 02:00 -1,4 C 10,0 C -0,9 C -1,7 C -2,2 C 0,0 C 90 % 91 % 0 % 1030,1 hPa 0,0 l/m 0,0 km/h (0 Bft) S-SO 157 0 min 0,0 UV-I -2,8 C -2,2 C 0,0 km/h (0 Bft)
25.11.2011 02:10 -1,5 C 10,0 C -1,0 C -1,8 C -2,3 C 0,0 C 90 % 91 % 0 % 1030,1 hPa 0,0 l/m 0,0 km/h (0 Bft) N 0 0 min 0,0 UV-I -2,9 C -2,3 C 0,0 km/h (0 Bft)
25.11.2011 02:20 -1,6 C 10,0 C -0,9 C -1,8 C -2,2 C 0,0 C 90 % 91 % 0 % 1030,1 hPa 0,0 l/m 0,0 km/h (0 Bft) SW 225 0 min 0,0 UV-I -3,0 C -2,2 C 0,0 km/h (0 Bft)
25.11.2011 02:25 -1,7 C 10,0 C -0,9 C -1,7 C -1,8 C 0,0 C 90 % 91 % 0 % 1030,1 hPa 0,0 l/m 0,0 km/h (0 Bft) SW 225 0 min 0,0 UV-I -3,1 C -1,8 C 0,0 km/h (0 Bft)
25.11.2011 02:30 -1,7 C 10,0 C -1,1 C -1,8 C -2,0 C 0,0 C 90 % 91 % 0 % 1030,1 hPa 0,0 l/m 0,0 km/h (0 Bft) W-SW 247 0 min 0,0 UV-I -3,1 C -2,0 C 0,0 km/h (0 Bft)
25.11.2011 02:35 -1,5 C 10,0 C -1,1 C -1,7 C -2,0 C 0,0 C 91 % 91 % 0 % 1030,1 hPa 0,0 l/m 0,2 km/h (0 Bft) W-SW 247 0 min 0,0 UV-I -2,8 C -2,0 C 0,0 km/h (0 Bft)
25.11.2011 02:40 -1,6 C 10,0 C -1,1 C -1,8 C -2,1 C 0,0 C 91 % 91 % 0 % 1030,0 hPa 0,0 l/m 0,2 km/h (0 Bft) W-SW 247 0 min 0,0 UV-I -2,9 C -2,1 C 0,0 km/h (0 Bft)
25.11.2011 02:45 -1,6 C 10,0 C -0,9 C -1,8 C -2,2 C 0,0 C 91 % 91 % 0 % 1030,0 hPa 0,0 l/m 0,0 km/h (0 Bft) W-SW 247 0 min 0,0 UV-I -2,9 C -2,2 C 0,0 km/h (0 Bft)
25.11.2011 02:50 -1,7 C 10,0 C -1,1 C -1,9 C -2,3 C 0,0 C 91 % 91 % 0 % 1030,0 hPa 0,0 l/m 0,0 km/h (0 Bft) W-SW 247 0 min 0,0 UV-I -3,0 C -2,3 C 0,0 km/h (0 Bft)
25.11.2011 02:55 -1,6 C 10,0 C -1,1 C -1,8 C -2,2 C 0,0 C 91 % 91 % 0 % 1030,0 hPa 0,0 l/m 0,2 km/h (0 Bft) S 180 0 min 0,0 UV-I -2,9 C -2,2 C 2,3 km/h (1 Bft)
25.11.2011 03:00 -1,3 C 10,0 C -0,9 C -1,5 C -2,0 C 0,0 C 91 % 92 % 0 % 1030,0 hPa 0,0 l/m 0,5 km/h (0 Bft) SW 225 0 min 0,0 UV-I -2,6 C -2,0 C 0,0 km/h (0 Bft)
25.11.2011 03:11 -1,3 C 9,9 C -0,9 C -1,5 C -1,8 C 0,0 C 91 % 92 % 0 % 1030,0 hPa 0,0 l/m 0,3 km/h (0 Bft) N 0 0 min 0,0 UV-I -2,6 C -1,8 C 2,6 km/h (1 Bft)
25.11.2011 03:20 -1,5 C 9,9 C -1,1 C -1,7 C -2,1 C 0,0 C 91 % 91 % 0 % 1030,0 hPa 0,0 l/m 0,0 km/h (0 Bft) W-SW 247 0 min 0,0 UV-I -2,8 C -2,1 C 0,0 km/h (0 Bft)
25.11.2011 03:25 -1,6 C 9,9 C -1,2 C -1,8 C -2,2 C 0,0 C 91 % 91 % 0 % 1030,0 hPa 0,0 l/m 0,0 km/h (0 Bft) W-SW 247 0 min 0,0 UV-I -2,9 C -2,2 C 0,0 km/h (0 Bft)
25.11.2011 03:30 -1,6 C 9,9 C -1,1 C -1,8 C -2,2 C 0,0 C 91 % 91 % 0 % 1030,0 hPa 0,0 l/m 0,0 km/h (0 Bft) SW 225 0 min 0,0 UV-I -2,9 C -2,2 C 0,0 km/h (0 Bft)
25.11.2011 03:35 -1,6 C 9,9 C -1,1 C -1,8 C -2,2 C 0,0 C 91 % 91 % 0 % 1030,0 hPa 0,0 l/m 0,0 km/h (0 Bft) W-SW 247 0 min 0,0 UV-I -2,9 C -2,2 C 0,0 km/h (0 Bft)
25.11.2011 03:40 -1,7 C 9,9 C -1,1 C -1,9 C -2,4 C 0,0 C 91 % 91 % 0 % 1029,2 hPa 0,0 l/m 0,0 km/h (0 Bft) W-SW 247 0 min 0,0 UV-I -3,0 C -2,4 C 0,0 km/h (0 Bft)
25.11.2011 03:45 -1,7 C 9,9 C -1,3 C -2,0 C -2,6 C 0,0 C 91 % 91 % 0 % 1029,2 hPa 0,0 l/m 0,0 km/h (0 Bft) W-SW 247 0 min 0,0 UV-I -3,0 C -2,6 C 0,0 km/h (0 Bft)
25.11.2011 03:50 -1,7 C 9,9 C -1,3 C -2,0 C -2,6 C 0,0 C 91 % 91 % 0 % 1029,2 hPa 0,0 l/m 0,0 km/h (0 Bft) W-SW 247 0 min 0,0 UV-I -3,0 C -2,6 C 0,0 km/h (0 Bft)
25.11.2011 03:55 -1,7 C 9,9 C -1,3 C -2,0 C -2,5 C 0,0 C 91 % 91 % 0 % 1029,2 hPa 0,0 l/m 0,0 km/h (0 Bft) S 180 0 min 0,0 UV-I -3,0 C -2,5 C 0,0 km/h (0 Bft)
25.11.2011 04:00 -1,7 C 9,9 C -1,3 C -1,9 C -2,4 C 0,0 C 91 % 91 % 0 % 1029,1 hPa 0,0 l/m 0,0 km/h (0 Bft) S 180 0 min 0,0 UV-I -3,0 C -2,4 C 0,0 km/h (0 Bft)
25.11.2011 04:15 -1,9 C 9,9 C -1,3 C -2,1 C -2,6 C 0,0 C 91 % 91 % 0 % 1029,1 hPa 0,0 l/m 0,0 km/h (0 Bft) S 180 0 min 0,0 UV-I -3,2 C -2,6 C 0,0 km/h (0 Bft)
25.11.2011 04:18 -1,9 C 9,9 C -1,3 C -2,1 C -2,6 C 0,0 C 91 % 91 % 0 % 1029,1 hPa 0,0 l/m 0,0 km/h (0 Bft) S 180 0 min 0,0 UV-I -3,2 C -2,6 C 0,0 km/h (0 Bft)
25.11.2011 04:20 -1,9 C 9,9 C -1,3 C -2,1 C -2,4 C 0,0 C 91 % 91 % 0 % 1029,1 hPa 0,0 l/m 0,0 km/h (0 Bft) O-SO 112 0 min 0,0 UV-I -3,2 C -2,4 C 0,0 km/h (0 Bft)
25.11.2011 04:25 -1,9 C 9,8 C -1,5 C -2,0 C -2,3 C 0,0 C 91 % 91 % 0 % 1029,1 hPa 0,0 l/m 0,0 km/h (0 Bft) O-NO 67 0 min 0,0 UV-I -3,2 C -2,3 C 0,0 km/h (0 Bft)
25.11.2011 04:30 -1,9 C 9,8 C -1,5 C -2,0 C -2,3 C 0,0 C 91 % 91 % 0 % 1029,1 hPa 0,0 l/m 0,0 km/h (0 Bft) O-NO 67 0 min 0,0 UV-I -3,2 C -2,3 C 0,0 km/h (0 Bft)
25.11.2011 04:35 -1,9 C 9,8 C -1,3 C -2,1 C -2,4 C 0,0 C 91 % 92 % 0 % 1029,1 hPa 0,0 l/m 0,0 km/h (0 Bft) W-SW 247 0 min 0,0 UV-I -3,2 C -2,4 C 0,0 km/h (0 Bft)
25.11.2011 04:40 -1,7 C 9,8 C -1,4 C -1,9 C -2,4 C 0,0 C 91 % 92 % 0 % 1028,8 hPa 0,0 l/m 0,0 km/h (0 Bft) SW 225 0 min 0,0 UV-I -3,0 C -2,4 C 0,0 km/h (0 Bft)
25.11.2011 04:45 -1,7 C 9,8 C -1,4 C -2,0 C -2,5 C 0,0 C 91 % 92 % 0 % 1028,8 hPa 0,0 l/m 0,0 km/h (0 Bft) W-SW 247 0 min 0,0 UV-I -3,0 C -2,5 C 0,0 km/h (0 Bft)
25.11.2011 04:50 -1,9 C 9,8 C -1,3 C -2,1 C -2,6 C 0,0 C 91 % 92 % 0 % 1028,8 hPa 0,0 l/m 0,0 km/h (0 Bft) W-SW 247 0 min 0,0 UV-I -3,2 C -2,6 C 0,0 km/h (0 Bft)
25.11.2011 04:55 -2,0 C 9,8 C -1,5 C -2,3 C -2,9 C 0,0 C 91 % 91 % 0 % 1028,8 hPa 0,0 l/m 0,0 km/h (0 Bft) SW 225 0 min 0,0 UV-I -3,3 C -2,9 C 0,0 km/h (0 Bft)
25.11.2011 05:00 -2,1 C 9,8 C -1,5 C -2,4 C -3,0 C 0,0 C 91 % 92 % 0 % 1028,6 hPa 0,0 l/m 0,0 km/h (0 Bft) W-SW 247 0 min 0,0 UV-I -3,4 C -3,0 C 0,0 km/h (0 Bft)
25.11.2011 05:04 -2,0 C 9,8 C -1,6 C -2,2 C -2,7 C 0,0 C 91 % 91 % 0 % 1028,6 hPa 0,0 l/m 0,6 km/h (0 Bft) S-SW 202 0 min 0,0 UV-I -3,3 C -2,7 C 1,6 km/h (1 Bft)
25.11.2011 05:09 -1,9 C 9,8 C -1,5 C -2,1 C -2,6 C 0,0 C 91 % 92 % 0 % 1028,6 hPa 0,0 l/m 0,6 km/h (0 Bft) W-SW 247 0 min 0,0 UV-I -3,2 C -2,6 C 0,0 km/h (0 Bft)
25.11.2011 05:14 -2,0 C 9,8 C -1,6 C -2,2 C -2,7 C 0,0 C 91 % 91 % 0 % 1028,6 hPa 0,0 l/m 0,2 km/h (0 Bft) W-SW 247 0 min 0,0 UV-I -3,3 C -2,7 C 0,0 km/h (0 Bft)
25.11.2011 05:18 -2,0 C 9,8 C -1,6 C -2,2 C -2,7 C 0,0 C 91 % 91 % 0 % 1028,6 hPa 0,0 l/m 0,2 km/h (0 Bft) W-SW 247 0 min 0,0 UV-I -3,3 C -2,7 C 0,0 km/h (0 Bft)
25.11.2011 05:25 -2,1 C 9,8 C -1,7 C -2,4 C -3,0 C 0,0 C 91 % 91 % 0 % 1028,5 hPa 0,0 l/m 0,0 km/h (0 Bft) W 270 0 min 0,0 UV-I -3,4 C -3,0 C 0,0 km/h (0 Bft)
25.11.2011 05:30 -2,2 C 9,8 C -1,7 C -2,5 C -3,1 C 0,0 C 91 % 91 % 0 % 1028,5 hPa 0,0 l/m 0,0 km/h (0 Bft) W 270 0 min 0,0 UV-I -3,5 C -3,1 C 0,0 km/h (0 Bft)
25.11.2011 05:35 -2,1 C 9,6 C -1,7 C -2,4 C -3,0 C 0,0 C 91 % 91 % 0 % 1028,5 hPa 0,0 l/m 0,0 km/h (0 Bft) S 180 0 min 0,0 UV-I -3,4 C -3,0 C 0,0 km/h (0 Bft)
25.11.2011 05:40 -2,1 C 9,6 C -1,7 C -2,4 C -2,9 C 0,0 C 91 % 91 % 0 % 1028,6 hPa 0,0 l/m 0,0 km/h (0 Bft) S 180 0 min 0,0 UV-I -3,4 C -2,9 C 0,0 km/h (0 Bft)
25.11.2011 05:45 -2,1 C 9,6 C -1,7 C -2,3 C -2,7 C 0,0 C 91 % 91 % 0 % 1028,6 hPa 0,0 l/m 0,0 km/h (0 Bft) O-SO 112 0 min 0,0 UV-I -3,4 C -2,7 C 0,0 km/h (0 Bft)
25.11.2011 05:50 -2,1 C 9,6 C -1,7 C -2,3 C -2,8 C 0,0 C 91 % 91 % 0 % 1028,6 hPa 0,0 l/m 0,0 km/h (0 Bft) SW 225 0 min 0,0 UV-I -3,4 C -2,8 C 0,0 km/h (0 Bft)
25.11.2011 05:55 -2,1 C 9,6 C -1,7 C -2,4 C -3,1 C 0,0 C 91 % 91 % 0 % 1028,6 hPa 0,0 l/m 0,0 km/h (0 Bft) SW 225 0 min 0,0 UV-I -3,4 C -3,1 C 0,0 km/h (0 Bft)
25.11.2011 06:00 -2,3 C 9,6 C -1,7 C -2,6 C -3,1 C 0,0 C 91 % 91 % 0 % 1028,6 hPa 0,0 l/m 0,0 km/h (0 Bft) SW 225 0 min 0,0 UV-I -3,6 C -3,1 C 0,0 km/h (0 Bft)
25.11.2011 06:15 -2,5 C 9,6 C -2,0 C -2,7 C -3,1 C 0,0 C 91 % 91 % 0 % 1028,6 hPa 0,0 l/m 0,0 km/h (0 Bft) SW 225 0 min 0,0 UV-I -3,8 C -3,1 C 0,0 km/h (0 Bft)
25.11.2011 06:17 -2,5 C 9,6 C -2,0 C -2,7 C -3,1 C 0,0 C 91 % 91 % 0 % 1028,6 hPa 0,0 l/m 0,0 km/h (0 Bft) SW 225 0 min 0,0 UV-I -3,8 C -3,1 C 0,0 km/h (0 Bft)
25.11.2011 06:20 -2,5 C 9,6 C -1,9 C -2,7 C -3,1 C 0,0 C 91 % 91 % 0 % 1028,6 hPa 0,0 l/m 0,0 km/h (0 Bft) SW 225 0 min 0,0 UV-I -3,8 C -3,1 C 0,0 km/h (0 Bft)
25.11.2011 06:25 -2,5 C 9,6 C -1,9 C -2,7 C -3,1 C 0,0 C 91 % 91 % 0 % 1028,6 hPa 0,0 l/m 0,0 km/h (0 Bft) SW 225 0 min 0,0 UV-I -3,8 C -3,1 C 0,0 km/h (0 Bft)
25.11.2011 06:30 -2,5 C 9,6 C -1,9 C -2,7 C -3,1 C 0,0 C 91 % 91 % 0 % 1028,6 hPa 0,0 l/m 0,0 km/h (0 Bft) SW 225 0 min 0,0 UV-I -3,8 C -3,1 C 0,0 km/h (0 Bft)
25.11.2011 06:35 -2,5 C 9,6 C -2,0 C -2,7 C -3,2 C 0,0 C 91 % 91 % 0 % 1028,6 hPa 0,0 l/m 0,0 km/h (0 Bft) S-SO 157 0 min 0,0 UV-I -3,8 C -3,2 C 0,0 km/h (0 Bft)
25.11.2011 06:40 -2,6 C 9,6 C -2,0 C -2,8 C -3,1 C 0,0 C 91 % 91 % 0 % 1028,1 hPa 0,0 l/m 0,0 km/h (0 Bft) S-SO 157 0 min 0,0 UV-I -3,9 C -3,1 C 0,0 km/h (0 Bft)
25.11.2011 06:45 -2,5 C 9,6 C -2,0 C -2,7 C -3,2 C 0,0 C 91 % 91 % 0 % 1028,1 hPa 0,0 l/m 0,0 km/h (0 Bft) SW 225 0 min 0,0 UV-I -3,8 C -3,2 C 0,0 km/h (0 Bft)
25.11.2011 06:50 -2,5 C 9,6 C -2,0 C -2,8 C -3,3 C 0,0 C 91 % 91 % 0 % 1028,1 hPa 0,0 l/m 0,0 km/h (0 Bft) SW 225 0 min 0,0 UV-I -3,8 C -3,3 C 0,0 km/h (0 Bft)
25.11.2011 06:55 -2,7 C 9,6 C -1,9 C -3,0 C -3,5 C 0,0 C 91 % 91 % 0 % 1028,1 hPa 0,0 l/m 0,0 km/h (0 Bft) SW 225 0 min 0,0 UV-I -4,0 C -3,5 C 0,0 km/h (0 Bft)
25.11.2011 07:00 -2,7 C 9,6 C -2,0 C -3,0 C -3,5 C 0,0 C 91 % 91 % 0 % 1028,1 hPa 0,0 l/m 0,0 km/h (0 Bft) O-SO 112 0 min 0,0 UV-I -4,0 C -3,5 C 0,0 km/h (0 Bft)
25.11.2011 07:04 -2,5 C 9,6 C -2,1 C -2,7 C -3,1 C 0,0 C 91 % 91 % 0 % 1028,1 hPa 0,0 l/m 0,0 km/h (0 Bft) O-SO 112 0 min 0,0 UV-I -3,8 C -3,1 C 0,0 km/h (0 Bft)
25.11.2011 07:09 -2,5 C 9,5 C -2,1 C -2,7 C -3,1 C 0,0 C 92 % 91 % 0 % 1028,1 hPa 0,0 l/m 0,0 km/h (0 Bft) SO 135 0 min 0,0 UV-I -3,6 C -3,1 C 0,0 km/h (0 Bft)
25.11.2011 07:14 -2,5 C 9,5 C -2,1 C -2,7 C -3,1 C 0,0 C 91 % 91 % 0 % 1028,1 hPa 0,0 l/m 0,0 km/h (0 Bft) O-SO 112 0 min 0,0 UV-I -3,8 C -3,1 C 0,0 km/h (0 Bft)
25.11.2011 07:18 -2,5 C 9,5 C -2,1 C -2,7 C -3,1 C 0,0 C 91 % 91 % 0 % 1028,1 hPa 0,0 l/m 0,0 km/h (0 Bft) O-SO 112 0 min 0,0 UV-I -3,8 C -3,1 C 0,0 km/h (0 Bft)
25.11.2011 07:25 -2,5 C 9,5 C -2,1 C -2,7 C -3,1 C 0,0 C 92 % 91 % 0 % 1027,9 hPa 0,0 l/m 0,0 km/h (0 Bft) O-SO 112 0 min 0,0 UV-I -3,6 C -3,1 C 0,0 km/h (0 Bft)
25.11.2011 07:30 -2,5 C 9,5 C -2,1 C -2,8 C -3,3 C 0,0 C 91 % 91 % 0 % 1027,9 hPa 0,0 l/m 0,0 km/h (0 Bft) S 180 0 min 0,0 UV-I -3,8 C -3,3 C 0,0 km/h (0 Bft)
25.11.2011 07:35 -2,7 C 9,6 C -2,1 C -2,9 C -3,4 C 0,0 C 91 % 91 % 0 % 1027,9 hPa 0,0 l/m 0,0 km/h (0 Bft) S 180 0 min 0,0 UV-I -4,0 C -3,4 C 0,0 km/h (0 Bft)
25.11.2011 07:40 -2,7 C 9,6 C -2,1 C -3,0 C -3,6 C 0,0 C 91 % 91 % 0 % 1027,9 hPa 0,0 l/m 0,0 km/h (0 Bft) S 180 0 min 0,0 UV-I -4,0 C -3,6 C 0,0 km/h (0 Bft)
25.11.2011 07:45 -2,7 C 9,6 C -2,1 C -3,0 C -3,7 C 0,0 C 91 % 91 % 0 % 1027,9 hPa 0,0 l/m 0,0 km/h (0 Bft) S 180 0 min 0,0 UV-I -4,0 C -3,7 C 0,0 km/h (0 Bft)
25.11.2011 07:50 -2,8 C 9,6 C -2,1 C -3,1 C -3,6 C 0,0 C 91 % 91 % 0 % 1027,9 hPa 0,0 l/m 0,0 km/h (0 Bft) S 180 0 min 0,0 UV-I -4,1 C -3,6 C 0,0 km/h (0 Bft)
25.11.2011 07:55 -2,7 C 9,6 C -2,1 C -3,0 C -3,5 C 0,0 C 91 % 91 % 0 % 1027,9 hPa 0,0 l/m 0,0 km/h (0 Bft) S 180 0 min 0,0 UV-I -4,0 C -3,5 C 0,0 km/h (0 Bft)
25.11.2011 08:00 -2,7 C 9,6 C -2,1 C -3,0 C -3,5 C 0,0 C 91 % 91 % 0 % 1028,2 hPa 0,0 l/m 0,0 km/h (0 Bft) S 180 0 min 0,0 UV-I -4,0 C -3,5 C 0,0 km/h (0 Bft)
25.11.2011 08:04 -2,8 C 9,6 C -2,1 C -3,0 C -3,4 C 0,0 C 91 % 91 % 0 % 1028,2 hPa 0,0 l/m 0,0 km/h (0 Bft) S 180 0 min 0,0 UV-I -4,1 C -3,4 C 0,0 km/h (0 Bft)
25.11.2011 08:09 -2,8 C 9,5 C -2,1 C -2,9 C -3,2 C 0,0 C 91 % 91 % 0 % 1028,2 hPa 0,0 l/m 0,0 km/h (0 Bft) S 180 0 min 0,0 UV-I -4,1 C -3,2 C 0,0 km/h (0 Bft)
25.11.2011 08:14 -2,8 C 9,5 C -2,1 C -2,9 C -3,0 C 0,0 C 91 % 91 % 0 % 1028,2 hPa 0,0 l/m 0,0 km/h (0 Bft) S 180 0 min 0,0 UV-I -4,1 C -3,0 C 0,0 km/h (0 Bft)
25.11.2011 08:18 -2,8 C 9,5 C -2,1 C -2,9 C -3,0 C 0,0 C 91 % 91 % 0 % 1028,2 hPa 0,0 l/m 0,0 km/h (0 Bft) S 180 0 min 0,0 UV-I -4,1 C -3,0 C 0,0 km/h (0 Bft)
25.11.2011 08:25 -2,8 C 9,4 C -2,1 C -2,8 C -2,8 C 0,0 C 91 % 91 % 0 % 1028,2 hPa 0,0 l/m 0,0 km/h (0 Bft) S 180 0 min 0,0 UV-I -4,1 C -2,8 C 0,0 km/h (0 Bft)
25.11.2011 08:30 -2,7 C 9,4 C -2,1 C -2,7 C -2,8 C 0,0 C 91 % 91 % 0 % 1028,2 hPa 0,0 l/m 0,0 km/h (0 Bft) S 180 0 min 0,0 UV-I -4,0 C -2,8 C 0,0 km/h (0 Bft)
25.11.2011 08:35 -2,7 C 9,4 C -1,9 C -2,7 C -2,7 C 0,0 C 92 % 91 % 0 % 1028,2 hPa 0,0 l/m 0,0 km/h (0 Bft) W-SW 247 0 min 0,0 UV-I -3,8 C -2,7 C 0,0 km/h (0 Bft)
25.11.2011 08:40 -2,6 C 9,5 C -2,0 C -2,5 C -2,5 C 0,1 C 92 % 91 % 3 % 1028,2 hPa 0,0 l/m 0,0 km/h (0 Bft) SW 225 0 min 0,0 UV-I -3,7 C -2,5 C 0,0 km/h (0 Bft)
25.11.2011 08:45 -2,4 C 9,5 C -1,7 C -2,2 C -2,2 C 0,2 C 92 % 92 % 5 % 1028,2 hPa 0,0 l/m 0,0 km/h (0 Bft) S-SW 202 0 min 0,0 UV-I -3,5 C -2,2 C 0,0 km/h (0 Bft)
25.11.2011 08:50 -2,3 C 9,5 C -1,7 C -2,0 C -2,0 C 0,3 C 92 % 92 % 8 % 1028,2 hPa 0,0 l/m 0,0 km/h (0 Bft) W-SW 247 0 min 0,0 UV-I -3,4 C -2,0 C 0,0 km/h (0 Bft)
25.11.2011 08:55 -2,1 C 9,5 C -1,5 C -1,8 C -1,8 C 0,3 C 92 % 92 % 8 % 1028,2 hPa 0,0 l/m 0,0 km/h (0 Bft) SW 225 0 min 0,0 UV-I -3,2 C -1,8 C 0,0 km/h (0 Bft)
25.11.2011 09:00 -2,0 C 9,5 C -1,3 C -1,6 C -1,6 C 0,4 C 92 % 92 % 11 % 1027,9 hPa 0,0 l/m 0,0 km/h (0 Bft) W-SW 247 0 min 0,0 UV-I -3,1 C -1,6 C 0,0 km/h (0 Bft)
25.11.2011 09:04 -1,9 C 9,5 C -1,3 C -1,6 C -1,6 C 0,3 C 92 % 92 % 8 % 1027,9 hPa 0,0 l/m 0,2 km/h (0 Bft) W-SW 247 0 min 0,0 UV-I -3,0 C -1,6 C 1,6 km/h (1 Bft)
25.11.2011 09:09 -1,9 C 9,5 C -1,3 C -1,7 C -1,7 C 0,2 C 92 % 92 % 5 % 1027,9 hPa 0,0 l/m 0,2 km/h (0 Bft) W-SW 247 0 min 0,0 UV-I -3,0 C -1,7 C 0,0 km/h (0 Bft)
25.11.2011 09:14 -1,7 C 9,5 C -1,3 C -1,6 C -1,6 C 0,1 C 92 % 92 % 3 % 1027,9 hPa 0,0 l/m 0,0 km/h (0 Bft) SO 135 0 min 0,0 UV-I -2,8 C -1,6 C 0,0 km/h (0 Bft)
25.11.2011 09:18 -1,7 C 9,5 C -1,3 C -1,6 C -1,6 C 0,1 C 92 % 92 % 3 % 1027,9 hPa 0,0 l/m 0,0 km/h (0 Bft) SO 135 0 min 0,0 UV-I -2,8 C -1,6 C 0,0 km/h (0 Bft)
25.11.2011 09:25 -1,7 C 9,3 C -1,1 C -1,0 C -1,0 C 0,7 C 92 % 92 % 18 % 1027,9 hPa 0,0 l/m 0,0 km/h (0 Bft) W-SW 247 0 min 0,0 UV-I -2,8 C -1,0 C 0,0 km/h (0 Bft)
25.11.2011 09:30 -1,5 C 9,2 C -0,9 C -0,9 C -0,9 C 0,6 C 92 % 92 % 16 % 1027,9 hPa 0,0 l/m 0,0 km/h (0 Bft) SW 225 0 min 0,0 UV-I -2,6 C -0,9 C 0,0 km/h (0 Bft)
25.11.2011 09:35 -1,2 C 9,2 C -0,9 C -0,7 C -0,7 C 0,5 C 93 % 92 % 13 % 1027,9 hPa 0,0 l/m 0,5 km/h (0 Bft) W-SW 247 0 min 0,0 UV-I -2,2 C -0,7 C 0,0 km/h (0 Bft)
25.11.2011 09:40 -0,9 C 9,3 C -0,7 C -0,1 C -0,1 C 0,8 C 93 % 92 % 21 % 1027,7 hPa 0,0 l/m 0,5 km/h (0 Bft) W-SW 247 0 min 0,0 UV-I -1,9 C -0,1 C 0,0 km/h (0 Bft)
25.11.2011 09:45 -0,8 C 9,4 C -0,5 C 0,1 C 0,1 C 0,9 C 93 % 92 % 24 % 1027,7 hPa 0,0 l/m 0,3 km/h (0 Bft) W-SW 247 0 min 0,0 UV-I -1,8 C 0,1 C 1,8 km/h (1 Bft)
25.11.2011 09:50 -0,7 C 9,3 C -0,3 C 0,0 C 0,0 C 0,7 C 93 % 92 % 18 % 1027,7 hPa 0,0 l/m 0,5 km/h (0 Bft) W-SW 247 0 min 0,0 UV-I -1,7 C 0,0 C 0,0 km/h (0 Bft)
25.11.2011 09:55 -0,5 C 9,4 C -0,1 C 0,0 C 0,0 C 0,5 C 93 % 93 % 13 % 1027,7 hPa 0,0 l/m 0,2 km/h (0 Bft) W 270 0 min 0,0 UV-I -1,5 C 0,0 C 0,0 km/h (0 Bft)
25.11.2011 10:00 -0,4 C 9,3 C -0,1 C 0,1 C 0,1 C 0,5 C 93 % 93 % 13 % 1027,3 hPa 0,0 l/m 0,0 km/h (0 Bft) W 270 0 min 0,0 UV-I -1,4 C 0,1 C 0,0 km/h (0 Bft)
25.11.2011 10:15 0,2 C 9,5 C 0,4 C 2,0 C 2,0 C 1,8 C 93 % 93 % 47 % 1027,3 hPa 0,0 l/m 0,2 km/h (0 Bft) W-SW 247 0 min 0,0 UV-I -0,8 C 2,0 C 2,3 km/h (1 Bft)
25.11.2011 10:17 0,2 C 9,5 C 0,4 C 2,0 C 2,0 C 1,8 C 93 % 93 % 47 % 1027,3 hPa 0,0 l/m 0,2 km/h (0 Bft) W-SW 247 0 min 0,0 UV-I -0,8 C 2,0 C 2,3 km/h (1 Bft)
25.11.2011 10:20 0,7 C 9,5 C 0,7 C 2,2 C 2,2 C 1,5 C 93 % 93 % 39 % 1027,4 hPa 0,0 l/m 0,8 km/h (0 Bft) W 270 0 min 0,0 UV-I -0,3 C 2,2 C 2,3 km/h (1 Bft)
25.11.2011 10:25 0,9 C 9,3 C 0,8 C 2,6 C 2,6 C 1,7 C 93 % 93 % 45 % 1027,4 hPa 0,0 l/m 0,6 km/h (0 Bft) W-SW 247 0 min 0,0 UV-I -0,1 C 2,6 C 0,0 km/h (0 Bft)
25.11.2011 10:30 1,1 C 9,3 C 0,9 C 3,0 C 3,0 C 1,9 C 93 % 93 % 50 % 1027,4 hPa 0,0 l/m 0,2 km/h (0 Bft) W-SW 247 0 min 0,0 UV-I 0,1 C 3,0 C 0,0 km/h (0 Bft)
25.11.2011 10:35 1,3 C 9,3 C 1,2 C 3,1 C 3,1 C 1,8 C 93 % 93 % 47 % 1027,4 hPa 0,0 l/m 0,5 km/h (0 Bft) S 180 0 min 0,0 UV-I 0,3 C 3,1 C 2,6 km/h (1 Bft)
25.11.2011 10:40 1,6 C 9,3 C 1,7 C 3,3 C 3,3 C 1,7 C 93 % 93 % 45 % 1027,4 hPa 0,0 l/m 1,1 km/h (1 Bft) S 180 0 min 0,0 UV-I 0,6 C 3,3 C 3,2 km/h (1 Bft)
25.11.2011 10:45 2,1 C 9,1 C 1,9 C 4,0 C 4,0 C 1,9 C 93 % 93 % 50 % 1027,4 hPa 0,0 l/m 1,6 km/h (1 Bft) SW 225 0 min 0,0 UV-I 1,1 C 4,0 C 2,3 km/h (1 Bft)
25.11.2011 10:50 2,2 C 9,1 C 2,0 C 4,4 C 4,4 C 2,2 C 93 % 93 % 58 % 1027,4 hPa 0,0 l/m 1,1 km/h (1 Bft) W-SW 247 0 min 0,0 UV-I 1,2 C 4,4 C 3,2 km/h (1 Bft)
25.11.2011 10:55 2,5 C 9,0 C 2,1 C 4,6 C 4,6 C 2,1 C 93 % 93 % 55 % 1027,4 hPa 0,0 l/m 0,5 km/h (0 Bft) SW 225 0 min 0,0 UV-I 1,5 C 4,6 C 0,0 km/h (0 Bft)
25.11.2011 11:00 2,8 C 9,0 C 2,3 C 4,7 C 4,7 C 1,9 C 93 % 93 % 50 % 1027,4 hPa 0,0 l/m 0,3 km/h (0 Bft) W-SW 247 0 min 0,0 UV-I 1,8 C 4,7 C 1,9 km/h (1 Bft)
25.11.2011 11:15 4,0 C 9,1 C 3,2 C 8,4 C 8,4 C 4,4 C 94 % 93 % 100 % 1027,4 hPa 0,0 l/m 1,3 km/h (1 Bft) W-SW 247 15 min 0,0 UV-I 3,1 C 8,4 C 0,0 km/h (0 Bft)
25.11.2011 11:17 4,0 C 9,1 C 3,2 C 8,4 C 8,4 C 4,4 C 94 % 93 % 100 % 1027,4 hPa 0,0 l/m 1,3 km/h (1 Bft) W-SW 247 2 min 0,0 UV-I 3,1 C 8,4 C 0,0 km/h (0 Bft)
25.11.2011 11:20 4,3 C 9,1 C 3,6 C 9,1 C 9,1 C 4,8 C 93 % 94 % 100 % 1026,8 hPa 0,0 l/m 1,6 km/h (1 Bft) SW 225 3 min 0,0 UV-I 3,3 C 9,1 C 0,0 km/h (0 Bft)
25.11.2011 11:25 4,5 C 9,1 C 4,1 C 9,6 C 9,6 C 5,1 C 93 % 93 % 100 % 1026,8 hPa 0,0 l/m 1,3 km/h (1 Bft) W-SW 247 5 min 0,0 UV-I 3,5 C 9,6 C 0,0 km/h (0 Bft)
25.11.2011 11:30 4,7 C 9,0 C 4,0 C 9,7 C 9,7 C 5,0 C 93 % 93 % 100 % 1026,8 hPa 0,0 l/m 1,0 km/h (0 Bft) W-SW 247 5 min 0,0 UV-I 3,7 C 9,7 C 1,8 km/h (1 Bft)
25.11.2011 11:35 5,2 C 8,9 C 4,3 C 9,3 C 9,3 C 4,1 C 92 % 93 % 100 % 1026,8 hPa 0,0 l/m 0,5 km/h (0 Bft) S-SO 157 5 min 0,0 UV-I 4,0 C 9,3 C 0,0 km/h (0 Bft)
25.11.2011 11:40 5,3 C 8,9 C 4,3 C 9,1 C 9,1 C 3,8 C 92 % 92 % 100 % 1026,2 hPa 0,0 l/m 0,5 km/h (0 Bft) O 90 5 min 0,0 UV-I 4,1 C 9,1 C 0,0 km/h (0 Bft)
25.11.2011 11:45 5,6 C 8,9 C 4,5 C 9,0 C 9,0 C 3,4 C 91 % 92 % 89 % 1026,2 hPa 0,0 l/m 0,2 km/h (0 Bft) W-SW 247 5 min 0,0 UV-I 4,2 C 9,0 C 0,0 km/h (0 Bft)
25.11.2011 11:50 5,9 C 8,9 C 4,7 C 8,8 C 8,8 C 2,9 C 91 % 93 % 76 % 1026,2 hPa 0,0 l/m 0,8 km/h (0 Bft) W-SW 247 0 min 0,0 UV-I 4,5 C 8,8 C 2,7 km/h (1 Bft)
25.11.2011 11:55 6,5 C 8,9 C 5,3 C 9,1 C 9,1 C 2,6 C 90 % 92 % 68 % 1026,2 hPa 0,0 l/m 1,8 km/h (1 Bft) N 360 0 min 0,0 UV-I 5,0 C 9,1 C 0,0 km/h (0 Bft)
25.11.2011 12:00 6,7 C 8,9 C 5,3 C 9,2 C 9,2 C 2,5 C 89 % 91 % 66 % 1025,8 hPa 0,0 l/m 2,1 km/h (1 Bft) W-SW 247 0 min 0,0 UV-I 5,0 C 9,2 C 4,0 km/h (1 Bft)
25.11.2011 12:04 7,0 C 8,9 C 5,7 C 9,9 C 9,9 C 2,9 C 88 % 91 % 76 % 1025,8 hPa 0,0 l/m 2,1 km/h (1 Bft) SW 225 0 min 0,0 UV-I 5,2 C 9,9 C 3,2 km/h (1 Bft)
25.11.2011 12:09 7,2 C 9,0 C 5,9 C 10,2 C 10,2 C 3,0 C 87 % 91 % 79 % 1025,8 hPa 0,0 l/m 2,7 km/h (1 Bft) S 180 0 min 0,0 UV-I 5,2 C 10,2 C 3,9 km/h (1 Bft)
25.11.2011 12:14 7,7 C 8,9 C 6,3 C 10,5 C 10,5 C 2,8 C 84 % 91 % 74 % 1025,8 hPa 0,0 l/m 2,9 km/h (1 Bft) W-SW 247 0 min 0,0 UV-I 5,2 C 10,5 C 4,7 km/h (1 Bft)
25.11.2011 12:18 7,7 C 8,9 C 6,3 C 10,5 C 10,5 C 2,8 C 84 % 91 % 74 % 1025,8 hPa 0,0 l/m 2,9 km/h (1 Bft) W-SW 247 0 min 0,0 UV-I 5,2 C 10,5 C 4,7 km/h (1 Bft)
25.11.2011 12:25 8,5 C 8,9 C 6,8 C 10,7 C 10,7 C 2,2 C 81 % 89 % 58 % 1025,8 hPa 0,0 l/m 2,7 km/h (1 Bft) SW 225 0 min 0,0 UV-I 5,4 C 10,7 C 2,6 km/h (1 Bft)
25.11.2011 12:30 8,7 C 8,9 C 7,1 C 10,6 C 10,6 C 1,9 C 80 % 88 % 50 % 1025,8 hPa 0,0 l/m 2,9 km/h (1 Bft) SW 225 0 min 0,0 UV-I 5,4 C 10,6 C 7,7 km/h (2 Bft)
25.11.2011 12:35 9,1 C 8,9 C 7,7 C 10,7 C 10,7 C 1,6 C 79 % 86 % 42 % 1025,8 hPa 0,0 l/m 2,4 km/h (1 Bft) S 180 0 min 0,0 UV-I 5,7 C 10,7 C 1,9 km/h (1 Bft)
25.11.2011 12:40 9,3 C 8,9 C 8,0 C 11,0 C 11,0 C 1,7 C 77 % 85 % 45 % 1025,0 hPa 0,0 l/m 2,6 km/h (1 Bft) SW 225 0 min 0,0 UV-I 5,5 C 11,0 C 2,9 km/h (1 Bft)
25.11.2011 12:45 9,7 C 8,9 C 8,1 C 11,4 C 11,4 C 1,7 C 76 % 83 % 45 % 1025,0 hPa 0,0 l/m 2,3 km/h (1 Bft) S-SO 157 0 min 0,0 UV-I 5,7 C 11,4 C 1,9 km/h (1 Bft)
25.11.2011 12:50 9,9 C 8,9 C 8,4 C 11,6 C 11,6 C 1,7 C 74 % 83 % 45 % 1025,0 hPa 0,0 l/m 2,3 km/h (1 Bft) SW 225 0 min 0,0 UV-I 5,5 C 11,6 C 0,0 km/h (0 Bft)
25.11.2011 12:55 10,3 C 9,0 C 8,7 C 12,1 C 12,1 C 1,8 C 70 % 81 % 47 % 1025,0 hPa 0,0 l/m 4,7 km/h (1 Bft) SW 225 0 min 0,0 UV-I 5,1 C 12,1 C 5,5 km/h (1 Bft)
25.11.2011 13:00 10,4 C 8,9 C 8,9 C 11,8 C 11,8 C 1,4 C 69 % 79 % 37 % 1025,2 hPa 0,0 l/m 6,4 km/h (2 Bft) W-SW 247 0 min 0,0 UV-I 5,0 C 11,8 C 13,0 km/h (3 Bft)
25.11.2011 13:04 10,7 C 9,0 C 9,2 C 9,7 C 11,4 C 0,0 C 67 % 78 % 0 % 1025,2 hPa 0,0 l/m 8,2 km/h (2 Bft) W-SW 247 0 min 0,0 UV-I 4,8 C 11,4 C 8,5 km/h (2 Bft)
25.11.2011 13:09 10,8 C 8,9 C 9,5 C 11,9 C 11,8 C 1,1 C 67 % 77 % 29 % 1025,2 hPa 0,0 l/m 8,9 km/h (2 Bft) W-SW 247 0 min 0,0 UV-I 4,9 C 11,8 C 13,4 km/h (3 Bft)
25.11.2011 13:14 11,1 C 8,9 C 9,6 C 12,4 C 12,4 C 1,3 C 63 % 72 % 34 % 1025,2 hPa 0,0 l/m 9,0 km/h (2 Bft) SW 225 0 min 0,0 UV-I 4,3 C 12,4 C 14,8 km/h (3 Bft)
25.11.2011 13:18 11,1 C 8,9 C 9,6 C 12,4 C 12,4 C 1,3 C 63 % 72 % 34 % 1025,2 hPa 0,0 l/m 9,0 km/h (2 Bft) SW 225 0 min 0,0 UV-I 4,3 C 12,4 C 14,8 km/h (3 Bft)
25.11.2011 13:25 10,4 C 9,0 C 9,5 C 12,1 C 11,2 C 1,7 C 62 % 69 % 45 % 1025,4 hPa 0,0 l/m 14,0 km/h (3 Bft) W-SW 247 0 min 0,0 UV-I 3,4 C 11,2 C 20,8 km/h (4 Bft)
25.11.2011 13:30 10,2 C 9,0 C 9,3 C 11,5 C 10,9 C 1,3 C 63 % 70 % 34 % 1025,4 hPa 0,0 l/m 14,8 km/h (3 Bft) W-SW 247 0 min 0,0 UV-I 3,5 C 10,9 C 24,1 km/h (4 Bft)
25.11.2011 13:35 10,1 C 9,0 C 9,5 C 11,2 C 10,7 C 1,1 C 63 % 70 % 29 % 1025,4 hPa 0,0 l/m 12,9 km/h (3 Bft) W-SW 247 0 min 0,0 UV-I 3,4 C 10,7 C 16,7 km/h (3 Bft)
25.11.2011 13:40 10,0 C 9,0 C 9,3 C 10,9 C 10,4 C 0,9 C 61 % 68 % 24 % 1024,4 hPa 0,0 l/m 12,2 km/h (2 Bft) W-SW 247 0 min 0,0 UV-I 2,8 C 10,4 C 18,8 km/h (3 Bft)
25.11.2011 13:45 9,9 C 9,0 C 9,3 C 10,5 C 9,7 C 0,6 C 61 % 67 % 16 % 1024,4 hPa 0,0 l/m 14,5 km/h (3 Bft) O-SO 112 0 min 0,0 UV-I 2,7 C 7,6 C 22,4 km/h (4 Bft)
25.11.2011 13:50 9,9 C 9,0 C 9,3 C 9,8 C 9,7 C 0,0 C 60 % 66 % 0 % 1024,4 hPa 0,0 l/m 14,5 km/h (3 Bft) W 270 0 min 0,0 UV-I 2,5 C 7,6 C 29,9 km/h (5 Bft)
25.11.2011 13:55 9,6 C 9,0 C 9,1 C 10,0 C 9,3 C 0,4 C 60 % 67 % 11 % 1024,4 hPa 0,0 l/m 14,2 km/h (3 Bft) W-SW 247 0 min 0,0 UV-I 2,2 C 7,2 C 12,1 km/h (2 Bft)
25.11.2011 14:00 9,6 C 9,0 C 9,1 C 10,1 C 9,8 C 0,5 C 61 % 67 % 13 % 1024,6 hPa 0,0 l/m 12,2 km/h (2 Bft) S 180 0 min 0,0 UV-I 2,5 C 8,0 C 8,5 km/h (2 Bft)
25.11.2011 14:04 9,6 C 9,0 C 9,1 C 8,9 C 10,8 C 0,0 C 60 % 68 % 0 % 1024,6 hPa 0,0 l/m 8,4 km/h (2 Bft) SW 225 0 min 0,0 UV-I 2,2 C 10,8 C 12,9 km/h (3 Bft)
25.11.2011 14:09 9,6 C 9,0 C 9,6 C 10,8 C 10,8 C 1,2 C 61 % 67 % 32 % 1024,6 hPa 0,0 l/m 7,9 km/h (2 Bft) W-SW 247 0 min 0,0 UV-I 2,5 C 10,8 C 6,9 km/h (2 Bft)
25.11.2011 14:14 9,6 C 9,1 C 10,1 C 11,3 C 11,1 C 1,7 C 60 % 64 % 45 % 1024,6 hPa 0,0 l/m 9,0 km/h (2 Bft) W-NW 292 0 min 0,0 UV-I 2,2 C 11,1 C 6,9 km/h (2 Bft)
25.11.2011 14:18 9,6 C 9,1 C 10,1 C 11,1 C 11,1 C 1,5 C 60 % 64 % 39 % 1024,6 hPa 0,0 l/m 9,0 km/h (2 Bft) W-NW 292 0 min 0,0 UV-I 2,2 C 11,1 C 6,9 km/h (2 Bft)
25.11.2011 14:25 9,3 C 9,1 C 8,9 C 10,4 C 10,4 C 1,1 C 61 % 65 % 29 % 1024,8 hPa 0,0 l/m 6,8 km/h (2 Bft) W 270 0 min 0,0 UV-I 2,2 C 10,4 C 5,6 km/h (1 Bft)
25.11.2011 14:30 9,2 C 9,1 C 8,8 C 10,9 C 10,9 C 1,7 C 61 % 66 % 45 % 1024,8 hPa 0,0 l/m 6,4 km/h (2 Bft) S 180 0 min 0,0 UV-I 2,1 C 10,9 C 12,4 km/h (3 Bft)
25.11.2011 14:35 9,1 C 9,1 C 8,7 C 10,8 C 10,4 C 1,7 C 61 % 66 % 45 % 1024,8 hPa 0,0 l/m 7,7 km/h (2 Bft) W-SW 247 0 min 0,0 UV-I 2,0 C 10,4 C 6,4 km/h (2 Bft)
25.11.2011 14:40 8,9 C 9,1 C 8,5 C 10,8 C 10,6 C 1,9 C 62 % 66 % 50 % 1024,8 hPa 0,0 l/m 7,7 km/h (2 Bft) W-SW 247 0 min 0,0 UV-I 2,0 C 10,6 C 8,2 km/h (2 Bft)
25.11.2011 14:45 8,6 C 9,1 C 8,2 C 11,2 C 11,2 C 2,6 C 62 % 66 % 68 % 1024,8 hPa 0,0 l/m 5,1 km/h (1 Bft) W-NW 292 0 min 0,0 UV-I 1,7 C 11,2 C 5,8 km/h (2 Bft)
25.11.2011 14:50 8,5 C 9,1 C 8,0 C 11,2 C 11,2 C 2,7 C 63 % 67 % 71 % 1024,8 hPa 0,0 l/m 4,5 km/h (1 Bft) S-SO 157 0 min 0,0 UV-I 1,9 C 11,2 C 6,8 km/h (2 Bft)
25.11.2011 14:55 8,2 C 9,1 C 7,8 C 10,9 C 10,9 C 2,7 C 63 % 68 % 71 % 1024,8 hPa 0,0 l/m 4,5 km/h (1 Bft) S 180 0 min 0,0 UV-I 1,6 C 10,9 C 6,4 km/h (2 Bft)
25.11.2011 15:00 8,1 C 9,3 C 7,6 C 10,6 C 10,6 C 2,5 C 64 % 69 % 66 % 1024,3 hPa 0,0 l/m 4,2 km/h (1 Bft) S 180 0 min 0,0 UV-I 1,7 C 10,6 C 1,9 km/h (1 Bft)
25.11.2011 15:04 7,9 C 9,3 C 7,4 C 9,4 C 9,4 C 1,5 C 64 % 69 % 39 % 1024,3 hPa 0,0 l/m 3,7 km/h (1 Bft) S 180 0 min 0,0 UV-I 1,5 C 9,4 C 5,0 km/h (1 Bft)
25.11.2011 15:09 7,6 C 9,3 C 7,3 C 8,5 C 8,5 C 0,9 C 65 % 69 % 24 % 1024,3 hPa 0,0 l/m 3,7 km/h (1 Bft) SW 225 0 min 0,0 UV-I 1,5 C 8,5 C 9,5 km/h (2 Bft)
25.11.2011 15:14 7,5 C 9,3 C 7,0 C 7,5 C 7,4 C 0,0 C 65 % 70 % 0 % 1024,3 hPa 0,0 l/m 4,0 km/h (1 Bft) SW 225 0 min 0,0 UV-I 1,4 C 7,4 C 3,7 km/h (1 Bft)
25.11.2011 15:19 7,5 C 9,3 C 7,0 C 7,5 C 7,4 C 0,0 C 65 % 70 % 0 % 1024,3 hPa 0,0 l/m 4,0 km/h (1 Bft) SW 225 0 min 0,0 UV-I 1,4 C 7,4 C 3,7 km/h (1 Bft)
25.11.2011 15:25 7,1 C 9,3 C 6,7 C 6,9 C 6,6 C 0,0 C 66 % 70 % 0 % 1024,3 hPa 0,0 l/m 4,0 km/h (1 Bft) NW 315 0 min 0,0 UV-I 1,2 C 6,6 C 3,4 km/h (1 Bft)
25.11.2011 15:30 7,1 C 9,3 C 6,5 C 6,9 C 6,4 C 0,0 C 66 % 71 % 0 % 1024,3 hPa 0,0 l/m 3,9 km/h (1 Bft) W 270 0 min 0,0 UV-I 1,2 C 6,4 C 4,5 km/h (1 Bft)
25.11.2011 15:35 6,8 C 9,3 C 6,4 C 6,5 C 5,9 C 0,0 C 67 % 71 % 0 % 1024,3 hPa 0,0 l/m 4,0 km/h (1 Bft) SW 225 0 min 0,0 UV-I 1,1 C 5,9 C 6,1 km/h (2 Bft)
25.11.2011 15:40 6,6 C 9,3 C 6,2 C 6,1 C 5,2 C 0,0 C 67 % 72 % 0 % 1025,0 hPa 0,0 l/m 5,3 km/h (1 Bft) S-SW 202 0 min 0,0 UV-I 0,9 C 4,2 C 7,9 km/h (2 Bft)
25.11.2011 15:45 6,4 C 9,3 C 6,1 C 6,0 C 5,2 C 0,0 C 68 % 72 % 0 % 1025,0 hPa 0,0 l/m 4,5 km/h (1 Bft) SW 225 0 min 0,0 UV-I 0,9 C 5,2 C 2,3 km/h (1 Bft)
25.11.2011 15:50 6,3 C 9,3 C 5,9 C 5,8 C 4,9 C 0,0 C 68 % 73 % 0 % 1025,0 hPa 0,0 l/m 4,5 km/h (1 Bft) W 270 0 min 0,0 UV-I 0,8 C 4,9 C 5,5 km/h (1 Bft)
25.11.2011 15:55 6,0 C 9,3 C 5,6 C 5,6 C 4,9 C 0,0 C 69 % 73 % 0 % 1025,0 hPa 0,0 l/m 4,0 km/h (1 Bft) W 270 0 min 0,0 UV-I 0,8 C 4,9 C 1,6 km/h (1 Bft)
25.11.2011 16:00 5,9 C 9,4 C 5,5 C 5,6 C 4,9 C 0,0 C 69 % 73 % 0 % 1024,9 hPa 0,0 l/m 3,7 km/h (1 Bft) SO 135 0 min 0,0 UV-I 0,7 C 4,9 C 3,5 km/h (1 Bft)
25.11.2011 16:04 5,5 C 9,4 C 5,2 C 5,3 C 4,9 C 0,0 C 70 % 73 % 0 % 1024,9 hPa 0,0 l/m 3,1 km/h (1 Bft) SW 225 0 min 0,0 UV-I 0,5 C 4,9 C 9,5 km/h (2 Bft)
25.11.2011 16:09 5,5 C 9,4 C 5,1 C 5,2 C 4,6 C 0,0 C 70 % 74 % 0 % 1024,9 hPa 0,0 l/m 3,2 km/h (1 Bft) SW 225 0 min 0,0 UV-I 0,5 C 4,6 C 1,9 km/h (1 Bft)
25.11.2011 16:14 5,2 C 9,5 C 4,8 C 4,8 C 4,1 C 0,0 C 70 % 74 % 0 % 1024,9 hPa 0,0 l/m 3,5 km/h (1 Bft) W 270 0 min 0,0 UV-I 0,2 C 4,1 C 3,9 km/h (1 Bft)
25.11.2011 16:18 5,2 C 9,5 C 4,8 C 4,8 C 4,1 C 0,0 C 70 % 74 % 0 % 1024,9 hPa 0,0 l/m 3,5 km/h (1 Bft) W 270 0 min 0,0 UV-I 0,2 C 4,1 C 3,9 km/h (1 Bft)
25.11.2011 16:25 4,8 C 9,5 C 4,7 C 4,5 C 3,8 C 0,0 C 71 % 75 % 0 % 1024,4 hPa 0,0 l/m 2,4 km/h (1 Bft) O 90 0 min 0,0 UV-I -0,0 C 3,8 C 5,0 km/h (1 Bft)
25.11.2011 16:30 4,7 C 9,5 C 4,5 C 4,3 C 3,6 C 0,0 C 71 % 75 % 0 % 1024,4 hPa 0,0 l/m 1,9 km/h (1 Bft) O-SO 112 0 min 0,0 UV-I -0,1 C 3,6 C 5,5 km/h (1 Bft)
25.11.2011 16:35 4,6 C 9,5 C 4,4 C 4,2 C 3,4 C 0,0 C 72 % 75 % 0 % 1024,4 hPa 0,0 l/m 2,4 km/h (1 Bft) W 270 0 min 0,0 UV-I -0,0 C 3,4 C 4,7 km/h (1 Bft)
25.11.2011 16:40 4,4 C 9,5 C 4,3 C 3,9 C 2,9 C 0,0 C 72 % 76 % 0 % 1024,8 hPa 0,0 l/m 3,4 km/h (1 Bft) W-SW 247 0 min 0,0 UV-I -0,2 C 2,9 C 8,2 km/h (2 Bft)
25.11.2011 16:45 4,5 C 9,5 C 4,3 C 3,9 C 2,6 C 0,0 C 72 % 76 % 0 % 1024,8 hPa 0,0 l/m 4,3 km/h (1 Bft) SW 225 0 min 0,0 UV-I -0,1 C 2,6 C 3,2 km/h (1 Bft)
25.11.2011 16:50 4,3 C 9,5 C 4,1 C 3,7 C 2,4 C 0,0 C 72 % 76 % 0 % 1024,8 hPa 0,0 l/m 4,2 km/h (1 Bft) SW 225 0 min 0,0 UV-I -0,3 C 2,4 C 5,1 km/h (1 Bft)
25.11.2011 16:55 4,1 C 9,5 C 3,9 C 3,7 C 2,8 C 0,0 C 72 % 76 % 0 % 1024,8 hPa 0,0 l/m 3,5 km/h (1 Bft) S-SW 202 0 min 0,0 UV-I -0,5 C 2,8 C 4,8 km/h (1 Bft)
25.11.2011 17:00 4,1 C 9,5 C 3,9 C 3,4 C 2,1 C 0,0 C 73 % 76 % 0 % 1025,2 hPa 0,0 l/m 4,8 km/h (1 Bft) S-SO 157 0 min 0,0 UV-I -0,3 C 0,9 C 3,9 km/h (1 Bft)
25.11.2011 17:04 3,9 C 9,5 C 3,7 C 3,3 C 2,0 C 0,0 C 73 % 76 % 0 % 1025,2 hPa 0,0 l/m 4,5 km/h (1 Bft) S 180 0 min 0,0 UV-I -0,5 C 2,0 C 13,2 km/h (3 Bft)
25.11.2011 17:09 3,9 C 9,5 C 3,6 C 3,2 C 1,9 C 0,0 C 74 % 77 % 0 % 1025,2 hPa 0,0 l/m 4,3 km/h (1 Bft) N-NW 337 0 min 0,0 UV-I -0,3 C 1,9 C 4,0 km/h (1 Bft)
25.11.2011 17:14 3,6 C 9,5 C 3,5 C 3,0 C 1,9 C 0,0 C 74 % 77 % 0 % 1025,2 hPa 0,0 l/m 4,2 km/h (1 Bft) SO 135 0 min 0,0 UV-I -0,6 C 1,9 C 0,0 km/h (0 Bft)
25.11.2011 17:18 3,6 C 9,5 C 3,5 C 3,0 C 1,9 C 0,0 C 74 % 77 % 0 % 1025,2 hPa 0,0 l/m 4,2 km/h (1 Bft) SO 135 0 min 0,0 UV-I -0,6 C 1,9 C 0,0 km/h (0 Bft)
25.11.2011 17:25 3,4 C 9,6 C 3,2 C 3,0 C 2,1 C 0,0 C 75 % 78 % 0 % 1025,1 hPa 0,0 l/m 1,4 km/h (1 Bft) W 270 0 min 0,0 UV-I -0,6 C 2,1 C 2,3 km/h (1 Bft)
25.11.2011 17:30 3,3 C 9,6 C 3,2 C 2,8 C 1,9 C 0,0 C 75 % 79 % 0 % 1025,1 hPa 0,0 l/m 2,9 km/h (1 Bft) W-SW 247 0 min 0,0 UV-I -0,7 C 1,9 C 10,5 km/h (2 Bft)
25.11.2011 17:35 3,3 C 9,6 C 3,2 C 2,4 C 0,7 C 0,0 C 76 % 79 % 0 % 1025,1 hPa 0,0 l/m 6,1 km/h (2 Bft) S-SW 202 0 min 0,0 UV-I -0,5 C -1,3 C 9,0 km/h (2 Bft)
25.11.2011 17:40 3,3 C 9,6 C 3,1 C 2,3 C 0,3 C 0,0 C 76 % 79 % 0 % 1025,2 hPa 0,0 l/m 7,2 km/h (2 Bft) W-SW 247 0 min 0,0 UV-I -0,5 C -2,1 C 13,0 km/h (3 Bft)
25.11.2011 17:45 3,1 C 9,6 C 3,1 C 2,2 C 0,4 C 0,0 C 76 % 79 % 0 % 1025,2 hPa 0,0 l/m 7,2 km/h (2 Bft) S 180 0 min 0,0 UV-I -0,7 C -2,0 C 5,5 km/h (1 Bft)
25.11.2011 17:50 3,1 C 9,6 C 2,9 C 2,2 C 0,3 C 0,0 C 77 % 79 % 0 % 1025,2 hPa 0,0 l/m 7,2 km/h (2 Bft) SW 225 0 min 0,0 UV-I -0,5 C -2,1 C 3,2 km/h (1 Bft)
25.11.2011 17:55 2,9 C 9,6 C 2,9 C 2,2 C 0,7 C 0,0 C 77 % 80 % 0 % 1025,2 hPa 0,0 l/m 5,6 km/h (1 Bft) W 270 0 min 0,0 UV-I -0,7 C -1,1 C 9,3 km/h (2 Bft)
25.11.2011 18:00 2,9 C 9,6 C 2,8 C 2,2 C 0,9 C 0,0 C 77 % 80 % 0 % 1025,2 hPa 0,0 l/m 4,8 km/h (1 Bft) S 180 0 min 0,0 UV-I -0,7 C -0,5 C 4,5 km/h (1 Bft)
25.11.2011 18:04 2,9 C 9,6 C 2,8 C 2,3 C 1,0 C 0,0 C 77 % 80 % 0 % 1025,2 hPa 0,0 l/m 4,3 km/h (1 Bft) W-SW 247 0 min 0,0 UV-I -0,7 C 1,0 C 3,2 km/h (1 Bft)
25.11.2011 18:09 2,9 C 9,6 C 2,8 C 2,2 C 0,7 C 0,0 C 78 % 80 % 0 % 1025,2 hPa 0,0 l/m 5,0 km/h (1 Bft) O-SO 112 0 min 0,0 UV-I -0,5 C -0,8 C 3,7 km/h (1 Bft)
25.11.2011 18:14 2,7 C 9,7 C 2,7 C 1,9 C 0,3 C 0,0 C 78 % 80 % 0 % 1025,2 hPa 0,0 l/m 5,6 km/h (1 Bft) W 270 0 min 0,0 UV-I -0,7 C -1,5 C 10,9 km/h (2 Bft)
25.11.2011 18:18 2,7 C 9,7 C 2,7 C 1,9 C 0,3 C 0,0 C 78 % 80 % 0 % 1025,2 hPa 0,0 l/m 5,6 km/h (1 Bft) W 270 0 min 0,0 UV-I -0,7 C -1,5 C 10,9 km/h (2 Bft)
25.11.2011 18:25 2,7 C 9,7 C 2,6 C 2,0 C 0,7 C 0,0 C 78 % 81 % 0 % 1025,0 hPa 0,0 l/m 4,7 km/h (1 Bft) SW 225 0 min 0,0 UV-I -0,7 C -0,7 C 4,0 km/h (1 Bft)
25.11.2011 18:30 2,7 C 9,7 C 2,7 C 2,2 C 1,2 C 0,0 C 78 % 81 % 0 % 1025,0 hPa 0,0 l/m 3,5 km/h (1 Bft) W-SW 247 0 min 0,0 UV-I -0,7 C 1,2 C 10,1 km/h (2 Bft)
25.11.2011 18:35 2,6 C 9,7 C 2,6 C 2,0 C 0,7 C 0,0 C 78 % 81 % 0 % 1025,0 hPa 0,0 l/m 4,3 km/h (1 Bft) W-SW 247 0 min 0,0 UV-I -0,8 C 0,7 C 9,0 km/h (2 Bft)
25.11.2011 18:40 2,7 C 9,7 C 2,5 C 2,0 C 0,5 C 0,0 C 78 % 81 % 0 % 1025,4 hPa 0,0 l/m 4,7 km/h (1 Bft) O-NO 67 0 min 0,0 UV-I -0,7 C -0,9 C 9,0 km/h (2 Bft)
25.11.2011 18:45 2,5 C 9,7 C 2,4 C 1,9 C 0,8 C 0,0 C 78 % 81 % 0 % 1025,4 hPa 0,0 l/m 3,9 km/h (1 Bft) SW 225 0 min 0,0 UV-I -0,9 C 0,8 C 5,1 km/h (1 Bft)
25.11.2011 18:50 2,5 C 9,7 C 2,4 C 1,9 C 0,7 C 0,0 C 78 % 81 % 0 % 1025,4 hPa 0,0 l/m 3,9 km/h (1 Bft) W-SW 247 0 min 0,0 UV-I -0,9 C 0,7 C 4,8 km/h (1 Bft)
25.11.2011 18:55 2,4 C 9,7 C 2,4 C 1,7 C 0,3 C 0,0 C 79 % 81 % 0 % 1025,4 hPa 0,0 l/m 4,5 km/h (1 Bft) S 180 0 min 0,0 UV-I -0,9 C 0,3 C 3,9 km/h (1 Bft)
25.11.2011 19:00 2,4 C 9,7 C 2,4 C 1,7 C 0,2 C 0,0 C 79 % 82 % 0 % 1025,4 hPa 0,0 l/m 4,8 km/h (1 Bft) W-SW 247 0 min 0,0 UV-I -0,9 C -1,3 C 8,2 km/h (2 Bft)
25.11.2011 19:04 2,4 C 9,7 C 2,3 C 1,6 C -0,1 C 0,0 C 79 % 82 % 0 % 1025,4 hPa 0,0 l/m 5,8 km/h (2 Bft) S 180 0 min 0,0 UV-I -0,9 C -2,1 C 10,1 km/h (2 Bft)
25.11.2011 19:09 2,4 C 9,7 C 2,3 C 1,5 C -0,2 C 0,0 C 80 % 82 % 0 % 1025,4 hPa 0,0 l/m 6,4 km/h (2 Bft) W 270 0 min 0,0 UV-I -0,7 C -2,4 C 6,1 km/h (2 Bft)
25.11.2011 19:14 2,5 C 9,7 C 2,3 C 1,7 C 0,0 C 0,0 C 80 % 82 % 0 % 1025,4 hPa 0,0 l/m 5,8 km/h (2 Bft) S 180 0 min 0,0 UV-I -0,6 C -1,9 C 4,7 km/h (1 Bft)
25.11.2011 19:18 2,5 C 9,7 C 2,3 C 1,7 C 0,0 C 0,0 C 80 % 82 % 0 % 1025,4 hPa 0,0 l/m 5,8 km/h (2 Bft) S 180 0 min 0,0 UV-I -0,6 C -1,9 C 4,7 km/h (1 Bft)
25.11.2011 19:25 2,5 C 9,7 C 2,3 C 1,6 C -0,2 C 0,0 C 80 % 83 % 0 % 1025,7 hPa 0,0 l/m 6,9 km/h (2 Bft) SW 225 0 min 0,0 UV-I -0,6 C -2,6 C 10,0 km/h (2 Bft)
25.11.2011 19:30 2,5 C 9,7 C 2,4 C 1,7 C 0,1 C 0,0 C 80 % 83 % 0 % 1025,7 hPa 0,0 l/m 6,6 km/h (2 Bft) W 270 0 min 0,0 UV-I -0,6 C -2,1 C 4,8 km/h (1 Bft)
25.11.2011 19:35 2,4 C 9,7 C 2,5 C 2,0 C 1,3 C 0,0 C 80 % 83 % 0 % 1025,7 hPa 0,0 l/m 4,5 km/h (1 Bft) O-SO 112 0 min 0,0 UV-I -0,7 C 1,3 C 3,1 km/h (1 Bft)
25.11.2011 19:40 2,5 C 9,7 C 2,5 C 2,2 C 1,6 C 0,0 C 80 % 83 % 0 % 1025,5 hPa 0,0 l/m 4,2 km/h (1 Bft) SW 225 0 min 0,0 UV-I -0,6 C 1,6 C 4,7 km/h (1 Bft)
25.11.2011 19:45 2,7 C 9,7 C 2,6 C 2,4 C 1,9 C 0,0 C 81 % 83 % 0 % 1025,5 hPa 0,0 l/m 4,0 km/h (1 Bft) O-NO 67 0 min 0,0 UV-I -0,2 C 1,9 C 7,4 km/h (2 Bft)
25.11.2011 19:50 2,7 C 9,6 C 2,7 C 2,4 C 1,8 C 0,0 C 81 % 83 % 0 % 1025,5 hPa 0,0 l/m 4,3 km/h (1 Bft) SW 225 0 min 0,0 UV-I -0,2 C 1,8 C 6,3 km/h (2 Bft)
25.11.2011 19:55 2,7 C 9,6 C 2,8 C 2,4 C 1,9 C 0,0 C 81 % 83 % 0 % 1025,5 hPa 0,0 l/m 4,7 km/h (1 Bft) W 270 0 min 0,0 UV-I -0,2 C 0,7 C 5,3 km/h (1 Bft)
25.11.2011 20:00 2,8 C 9,6 C 2,8 C 2,4 C 1,6 C 0,0 C 81 % 83 % 0 % 1025,5 hPa 0,0 l/m 5,8 km/h (2 Bft) W-SW 247 0 min 0,0 UV-I -0,1 C -0,1 C 6,8 km/h (2 Bft)
25.11.2011 20:04 2,9 C 9,6 C 2,9 C 2,4 C 1,5 C 0,0 C 81 % 83 % 0 % 1025,5 hPa 0,0 l/m 6,4 km/h (2 Bft) W-SW 247 0 min 0,0 UV-I -0,0 C -0,4 C 8,2 km/h (2 Bft)
25.11.2011 20:09 2,8 C 9,6 C 2,9 C 2,4 C 1,6 C 0,0 C 81 % 83 % 0 % 1025,5 hPa 0,0 l/m 5,8 km/h (2 Bft) SO 135 0 min 0,0 UV-I -0,1 C -0,1 C 8,2 km/h (2 Bft)
25.11.2011 20:14 2,8 C 9,6 C 2,9 C 2,3 C 1,4 C 0,0 C 81 % 83 % 0 % 1025,5 hPa 0,0 l/m 6,6 km/h (2 Bft) W-SW 247 0 min 0,0 UV-I -0,1 C -0,6 C 8,7 km/h (2 Bft)
25.11.2011 20:18 2,8 C 9,6 C 2,9 C 2,3 C 1,4 C 0,0 C 81 % 83 % 0 % 1025,5 hPa 0,0 l/m 6,6 km/h (2 Bft) W-SW 247 0 min 0,0 UV-I -0,1 C -0,6 C 8,7 km/h (2 Bft)
25.11.2011 20:25 3,1 C 9,6 C 3,1 C 2,6 C 0,5 C 0,0 C 81 % 84 % 0 % 1025,5 hPa 0,0 l/m 10,5 km/h (2 Bft) SW 225 0 min 0,0 UV-I 0,2 C -2,8 C 11,4 km/h (2 Bft)
25.11.2011 20:30 3,1 C 9,6 C 3,1 C 2,5 C 0,1 C 0,0 C 81 % 83 % 0 % 1025,5 hPa 0,0 l/m 12,4 km/h (3 Bft) SW 225 0 min 0,0 UV-I 0,2 C -3,8 C 21,2 km/h (4 Bft)
25.11.2011 20:35 2,9 C 9,6 C 3,0 C 2,3 C 0,0 C 0,0 C 81 % 83 % 0 % 1025,5 hPa 0,0 l/m 12,4 km/h (3 Bft) SW 225 0 min 0,0 UV-I -0,0 C -3,9 C 20,4 km/h (4 Bft)
25.11.2011 20:40 2,9 C 9,6 C 3,1 C 2,3 C -0,1 C 0,0 C 82 % 84 % 0 % 1026,7 hPa 0,0 l/m 12,7 km/h (3 Bft) SW 225 0 min 0,0 UV-I 0,1 C -4,1 C 15,0 km/h (3 Bft)
25.11.2011 20:45 2,9 C 9,6 C 3,1 C 2,2 C -0,3 C 0,0 C 82 % 84 % 0 % 1026,7 hPa 0,0 l/m 12,2 km/h (2 Bft) W-SW 247 0 min 0,0 UV-I 0,1 C -4,2 C 13,2 km/h (3 Bft)
25.11.2011 20:50 2,8 C 9,6 C 2,9 C 2,1 C 0,0 C 0,0 C 82 % 84 % 0 % 1026,7 hPa 0,0 l/m 10,1 km/h (2 Bft) W-SW 247 0 min 0,0 UV-I 0,0 C -3,3 C 12,6 km/h (3 Bft)
25.11.2011 20:55 2,8 C 9,6 C 2,9 C 1,9 C 0,0 C 0,0 C 82 % 84 % 0 % 1026,7 hPa 0,0 l/m 10,1 km/h (2 Bft) W-SW 247 0 min 0,0 UV-I 0,0 C -3,3 C 17,2 km/h (3 Bft)
25.11.2011 21:00 2,8 C 9,6 C 2,9 C 2,2 C -0,1 C 0,0 C 83 % 85 % 0 % 1026,6 hPa 0,0 l/m 10,1 km/h (2 Bft) W 270 0 min 0,0 UV-I 0,2 C -3,5 C 10,1 km/h (2 Bft)
25.11.2011 21:04 2,9 C 9,6 C 2,8 C 2,2 C -0,1 C 0,0 C 84 % 85 % 0 % 1026,6 hPa 0,0 l/m 9,2 km/h (2 Bft) S-SO 157 0 min 0,0 UV-I 0,5 C -3,2 C 11,6 km/h (2 Bft)
25.11.2011 21:09 2,8 C 9,6 C 2,8 C 2,1 C 0,0 C 0,0 C 84 % 86 % 0 % 1026,6 hPa 0,0 l/m 8,7 km/h (2 Bft) SW 225 0 min 0,0 UV-I 0,4 C -3,0 C 14,5 km/h (3 Bft)
25.11.2011 21:14 2,9 C 9,6 C 2,8 C 2,2 C -0,1 C 0,0 C 84 % 86 % 0 % 1026,6 hPa 0,0 l/m 9,7 km/h (2 Bft) W 270 0 min 0,0 UV-I 0,5 C -3,4 C 15,3 km/h (3 Bft)
25.11.2011 21:18 2,9 C 9,6 C 2,8 C 1,9 C -0,1 C 0,0 C 84 % 86 % 0 % 1026,6 hPa 0,0 l/m 9,7 km/h (2 Bft) W 270 0 min 0,0 UV-I 0,5 C -3,4 C 15,3 km/h (3 Bft)
25.11.2011 21:25 2,8 C 9,6 C 2,9 C 2,2 C 0,3 C 0,0 C 84 % 86 % 0 % 1026,6 hPa 0,0 l/m 9,3 km/h (2 Bft) W-SW 247 0 min 0,0 UV-I 0,4 C -2,8 C 10,0 km/h (2 Bft)
25.11.2011 21:30 2,9 C 9,6 C 2,9 C 2,3 C 0,4 C 0,0 C 84 % 86 % 0 % 1026,6 hPa 0,0 l/m 8,9 km/h (2 Bft) W-SW 247 0 min 0,0 UV-I 0,5 C -2,5 C 10,5 km/h (2 Bft)
25.11.2011 21:35 2,9 C 9,6 C 2,9 C 2,4 C 0,6 C 0,0 C 84 % 86 % 0 % 1026,6 hPa 0,0 l/m 8,0 km/h (2 Bft) SW 225 0 min 0,0 UV-I 0,5 C -2,0 C 8,9 km/h (2 Bft)
25.11.2011 21:40 3,0 C 9,6 C 3,0 C 2,4 C 0,5 C 0,0 C 84 % 86 % 0 % 1026,6 hPa 0,0 l/m 8,5 km/h (2 Bft) W-SW 247 0 min 0,0 UV-I 0,6 C -2,3 C 6,6 km/h (2 Bft)
25.11.2011 21:45 3,0 C 9,6 C 3,1 C 2,5 C 0,8 C 0,0 C 84 % 86 % 0 % 1026,6 hPa 0,0 l/m 8,4 km/h (2 Bft) S-SW 202 0 min 0,0 UV-I 0,6 C -1,9 C 11,6 km/h (2 Bft)
25.11.2011 21:50 3,1 C 9,6 C 3,1 C 2,6 C 0,9 C 0,0 C 84 % 86 % 0 % 1026,6 hPa 0,0 l/m 8,5 km/h (2 Bft) W-SW 247 0 min 0,0 UV-I 0,7 C -1,8 C 22,5 km/h (4 Bft)
25.11.2011 21:55 3,1 C 9,6 C 3,1 C 2,6 C 0,6 C 0,0 C 84 % 86 % 0 % 1026,6 hPa 0,0 l/m 9,8 km/h (2 Bft) W-SW 247 0 min 0,0 UV-I 0,7 C -2,5 C 13,4 km/h (3 Bft)
25.11.2011 22:00 3,1 C 9,6 C 3,1 C 2,3 C 0,6 C 0,0 C 83 % 86 % 0 % 1027,6 hPa 0,0 l/m 10,0 km/h (2 Bft) W-SW 247 0 min 0,0 UV-I 0,5 C -2,6 C 16,6 km/h (3 Bft)
25.11.2011 22:04 3,2 C 9,6 C 3,1 C 2,6 C 0,7 C 0,0 C 83 % 86 % 0 % 1027,6 hPa 0,0 l/m 10,1 km/h (2 Bft) W-SW 247 0 min 0,0 UV-I 0,6 C -2,5 C 17,1 km/h (3 Bft)
25.11.2011 22:09 3,2 C 9,6 C 3,2 C 2,7 C 0,8 C 0,0 C 83 % 86 % 0 % 1027,6 hPa 0,0 l/m 9,8 km/h (2 Bft) W-SW 247 0 min 0,0 UV-I 0,6 C -2,3 C 8,0 km/h (2 Bft)
25.11.2011 22:14 3,2 C 9,6 C 3,3 C 2,4 C 0,8 C 0,0 C 83 % 86 % 0 % 1027,6 hPa 0,0 l/m 10,3 km/h (2 Bft) SW 225 0 min 0,0 UV-I 0,6 C -2,4 C 15,0 km/h (3 Bft)
25.11.2011 22:17 3,2 C 9,6 C 3,3 C 2,4 C 0,8 C 0,0 C 83 % 86 % 0 % 1027,6 hPa 0,0 l/m 10,3 km/h (2 Bft) SW 225 0 min 0,0 UV-I 0,6 C -2,4 C 15,0 km/h (3 Bft)
25.11.2011 22:20 3,2 C 9,6 C 3,2 C 2,7 C 0,9 C 0,0 C 83 % 86 % 0 % 1027,2 hPa 0,0 l/m 9,8 km/h (2 Bft) SW 225 0 min 0,0 UV-I 0,6 C -2,2 C 12,4 km/h (3 Bft)
25.11.2011 22:25 3,3 C 9,6 C 3,3 C 2,9 C 1,5 C 0,0 C 83 % 86 % 0 % 1027,2 hPa 0,0 l/m 8,0 km/h (2 Bft) S 180 0 min 0,0 UV-I 0,7 C -1,0 C 14,0 km/h (3 Bft)
25.11.2011 22:30 3,3 C 9,6 C 3,2 C 2,7 C 1,5 C 0,0 C 83 % 86 % 0 % 1027,2 hPa 0,0 l/m 7,9 km/h (2 Bft) SW 225 0 min 0,0 UV-I 0,7 C -0,9 C 9,2 km/h (2 Bft)
25.11.2011 22:35 3,3 C 9,6 C 3,3 C 2,8 C 1,7 C 0,0 C 83 % 85 % 0 % 1027,2 hPa 0,0 l/m 7,4 km/h (2 Bft) SW 225 0 min 0,0 UV-I 0,7 C -0,6 C 8,9 km/h (2 Bft)
25.11.2011 22:40 3,3 C 9,6 C 3,3 C 2,9 C 2,2 C 0,0 C 83 % 86 % 0 % 1027,4 hPa 0,0 l/m 6,3 km/h (2 Bft) W-SW 247 0 min 0,0 UV-I 0,7 C 0,4 C 12,7 km/h (3 Bft)
25.11.2011 22:45 3,5 C 9,6 C 3,4 C 3,1 C 2,2 C 0,0 C 83 % 85 % 0 % 1027,4 hPa 0,0 l/m 6,3 km/h (2 Bft) W-SW 247 0 min 0,0 UV-I 0,9 C 0,4 C 11,6 km/h (2 Bft)
25.11.2011 22:50 3,5 C 9,6 C 3,5 C 2,9 C 1,8 C 0,0 C 83 % 85 % 0 % 1027,4 hPa 0,0 l/m 7,4 km/h (2 Bft) W-SW 247 0 min 0,0 UV-I 0,9 C -0,4 C 8,7 km/h (2 Bft)
25.11.2011 22:55 3,5 C 9,6 C 3,5 C 3,1 C 1,3 C 0,0 C 83 % 85 % 0 % 1027,4 hPa 0,0 l/m 9,2 km/h (2 Bft) W-SW 247 0 min 0,0 UV-I 0,9 C -1,6 C 8,7 km/h (2 Bft)
25.11.2011 23:00 3,4 C 9,6 C 3,5 C 3,0 C 1,4 C 0,0 C 83 % 85 % 0 % 1027,8 hPa 0,0 l/m 8,9 km/h (2 Bft) S 180 0 min 0,0 UV-I 0,8 C -1,4 C 8,9 km/h (2 Bft)
25.11.2011 23:10 3,5 C 9,5 C 3,5 C 3,0 C 1,0 C 0,0 C 83 % 85 % 0 % 1027,8 hPa 0,0 l/m 10,5 km/h (2 Bft) N 0 0 min 0,0 UV-I 0,9 C -2,2 C 15,6 km/h (3 Bft)
25.11.2011 23:20 3,7 C 9,5 C 3,6 C 3,2 C 1,2 C 0,0 C 83 % 85 % 0 % 1027,4 hPa 0,0 l/m 10,9 km/h (2 Bft) W-SW 247 0 min 0,0 UV-I 1,1 C -2,1 C 10,5 km/h (2 Bft)
25.11.2011 23:25 3,8 C 9,6 C 3,7 C 3,3 C 1,7 C 0,0 C 82 % 85 % 0 % 1027,4 hPa 0,0 l/m 9,7 km/h (2 Bft) S 180 0 min 0,0 UV-I 1,0 C -1,2 C 8,4 km/h (2 Bft)
25.11.2011 23:30 3,9 C 9,5 C 3,7 C 3,5 C 1,9 C 0,0 C 83 % 85 % 0 % 1027,4 hPa 0,0 l/m 8,7 km/h (2 Bft) W-SW 247 0 min 0,0 UV-I 1,3 C -0,7 C 11,6 km/h (2 Bft)
25.11.2011 23:35 3,9 C 9,5 C 3,7 C 3,4 C 1,6 C 0,0 C 83 % 85 % 0 % 1027,4 hPa 0,0 l/m 10,0 km/h (2 Bft) W-SW 247 0 min 0,0 UV-I 1,3 C -1,4 C 15,3 km/h (3 Bft)
25.11.2011 23:40 3,9 C 9,5 C 3,7 C 3,4 C 1,7 C 0,0 C 82 % 85 % 0 % 1027,9 hPa 0,0 l/m 9,8 km/h (2 Bft) SW 225 0 min 0,0 UV-I 1,1 C -1,2 C 13,0 km/h (3 Bft)
25.11.2011 23:45 3,7 C 9,6 C 3,6 C 3,3 C 2,4 C 0,0 C 82 % 85 % 0 % 1027,9 hPa 0,0 l/m 5,6 km/h (1 Bft) SW 225 0 min 0,0 UV-I 0,9 C 0,9 C 2,7 km/h (1 Bft)
25.11.2011 23:50 3,7 C 9,5 C 3,5 C 3,4 C 2,8 C 0,0 C 82 % 85 % 0 % 1027,9 hPa 0,0 l/m 4,3 km/h (1 Bft) SO 135 0 min 0,0 UV-I 0,9 C 2,8 C 4,2 km/h (1 Bft)
25.11.2011 23:55 3,5 C 9,5 C 3,5 C 3,3 C 2,8 C 0,0 C 82 % 85 % 0 % 1027,9 hPa 0,0 l/m 4,0 km/h (1 Bft) SW 225 0 min 0,0 UV-I 0,7 C 2,8 C 4,8 km/h (1 Bft)
_ Min-Zeit 07:50 11:35 07:04 07:50 07:45 00:00 13:50 14:14 00:00 15:00 - 00:00 - - - 00:00 07:50 20:45 00:00
Minimum _ -2,8 C 8,9 C -2,1 C -3,1 C -3,7 C 0,0 C 60 % 64 % 0 % 1024,3 hPa - 0,0 km/h (0 Bft) - - - 0,0 UV-I -4,1 C -4,2 C 0,0 km/h (0 Bft)
_ Max-Zeit 13:14 00:00 14:14 13:14 13:14 11:25 11:15 11:20 11:15 00:00 00:00 13:30 - - 11:15 00:00 12:45 13:14 13:50
Maximum _ 11,1 C 10,1 C 10,1 C 12,4 C 12,4 C 5,1 C 94 % 94 % 100 % 1031,8 hPa 0,0 l/m 14,8 km/h
W-SW (3 Bft)
- - 15 min 0,0 UV-I 5,7 C 12,4 C 29,9 km/h
W (5 Bft)
Durchschnitt _ 2,0 C 9,5 C 2,1 C 2,2 C 1,5 C 0,5 C 83 % 85 % 12 % 1027,2 hPa #0,0 l/m 3,4 km/h (1 Bft) W-SW - #45 min. 0,0 UV-I -0,6 C 0,9 C 4,5 km/h (1 Bft)
2011 www.wetterstation-wechselburg.de